Weather History for Wolf Creek Pass, CO

Change the Weather History Date:

Thursday, February 7, 2013

  Actual Average (KALS) Record (KALS)
Temperature  
Mean Temperature 17 °F 20 °F  
Max Temperature 26 °F 37 °F 56 °F (1963)
Min Temperature 8 °F 2 °F -30 °F (1989)
Degree Days  
Heating Degree Days 48 45  
Month to date heating degree days 321  
Since 1 July heating degree days 5468  
Cooling Degree Days 0 0  
Month to date cooling degree days 0  
Year to date cooling degree days 0  
Moisture  
Dew Point 4 °F    
Average Humidity 61    
Maximum Humidity 93    
Minimum Humidity 20    
Precipitation  
Precipitation 0.00 in 0.01 in 0.10 in (1937)
Month to date precipitation 0.06  
Year to date precipitation 0.32  
Snow  
Snow 0.00 in 0.20 in 2.00 in (2012)
Month to date snowfall 1.0  
Since 1 July snowfall 15.3  
Snow Depth -    
Sea Level Pressure  
Sea Level Pressure 30.14 in    
Wind  
Wind Speed 10 mph (SSW)    
Max Wind Speed 17 mph    
Max Gust Speed 25 mph    
Visibility 10 miles    
Events      
T = Trace of Precipitation, MM = Missing Value Source: NWS Daily Summary

Daily Weather History Graph

Daily Weather History Graph

Search for Another Location

Airport:

Trip Planner

Search our weather history database for the weather conditions in past years. The results will help you decide how hot, cold, wet, or windy it might be!

Date:

Astronomy

Feb. 07, 2013 Rise Set
Actual Time 7:04 AM MST 5:38 PM MST
Civil Twilight 6:37 AM MST 6:05 PM MST
Nautical Twilight 6:06 AM MST 6:36 PM MST
Astronomical Twilight 5:36 AM MST 7:07 PM MST
Moon 4:44 AM MST (2/7) 3:07 PM MST (2/7)
Length of Visible Light 11h 27m
Length of Day
10h 33m
Waning Crescent, 8% of the Moon is Illuminated
Feb 7
Waning Crescent
Feb 10
New
Feb 17
First Quarter
Feb 25
Full
Mar 4
Last Quarter

Hourly Weather History & Observations

Time (MST) Temp. Windchill Dew Point Humidity Pressure Visibility Wind Dir Wind Speed Gust Speed Precip Events Conditions
12:10 AM 14.0 °F 2.0 °F 12.2 °F 93% 30.06 in 10.0 mi West 9.2 mph - N/A   Scattered Clouds
12:30 AM 14.0 °F 8.2 °F 12.2 °F 93% 30.06 in 10.0 mi NNW 3.5 mph 16.1 mph N/A   Scattered Clouds
12:50 AM 14.0 °F 1.2 °F 12.2 °F 93% 30.06 in 10.0 mi North 10.4 mph 17.3 mph N/A   Clear
1:10 AM 14.0 °F 2.0 °F 12.2 °F 93% 30.05 in 10.0 mi North 9.2 mph - N/A   Clear
1:30 AM 12.2 °F 4.3 °F 10.4 °F 92% 30.06 in 10.0 mi NNE 4.6 mph - N/A   Clear
1:50 AM 12.2 °F 4.3 °F 10.4 °F 92% 30.06 in 10.0 mi NNE 4.6 mph - N/A   Clear
2:10 AM 12.2 °F -1.8 °F 10.4 °F 92% 30.07 in 10.0 mi NNE 11.5 mph - N/A   Clear
2:30 AM 12.2 °F 0.7 °F 10.4 °F 92% 30.07 in 10.0 mi NNE 8.1 mph - N/A   Clear
2:50 AM 12.2 °F 1.7 °F 10.4 °F 92% 30.07 in 10.0 mi North 6.9 mph - N/A   Clear
3:09 AM 12.2 °F 0.7 °F 10.4 °F 92% 30.07 in 10.0 mi NE 8.1 mph - N/A   Clear
3:30 AM 12.2 °F -1.0 °F 10.4 °F 92% 30.07 in 10.0 mi ENE 10.4 mph - N/A   Clear
3:50 AM 10.4 °F -1.5 °F 8.6 °F 92% 30.07 in 10.0 mi NE 8.1 mph - N/A   Clear
4:07 AM 10.4 °F -1.5 °F 8.6 °F 92% 30.07 in 10.0 mi ENE 8.1 mph - N/A   Clear
4:30 AM 10.4 °F -4.8 °F 6.8 °F 85% 30.06 in 10.0 mi NE 12.7 mph - N/A   Clear
4:50 AM 8.6 °F -7.7 °F 5.0 °F 85% 30.07 in 10.0 mi NE 13.8 mph - N/A   Clear
5:10 AM 8.6 °F -8.3 °F 5.0 °F 85% 30.07 in 10.0 mi NE 15.0 mph - N/A   Clear
5:30 AM 8.6 °F -9.5 °F 3.2 °F 79% 30.07 in 10.0 mi NE 17.3 mph - N/A   Clear
5:48 AM 8.6 °F -8.9 °F 3.2 °F 79% 30.07 in 10.0 mi NE 16.1 mph - N/A   Clear
6:10 AM 8.6 °F -8.9 °F 3.2 °F 79% 30.07 in 10.0 mi NE 16.1 mph - N/A   Clear
6:29 AM 10.4 °F -7.2 °F 1.4 °F 67% 30.08 in 10.0 mi NE 17.3 mph - N/A   Clear
6:50 AM 10.4 °F -6.6 °F -0.4 °F 62% 30.09 in 10.0 mi NE 16.1 mph - N/A   Clear
7:08 AM 10.4 °F -7.2 °F -4.0 °F 52% 30.09 in 10.0 mi NE 17.3 mph - N/A   Clear
7:30 AM 12.2 °F -3.7 °F -7.6 °F 41% 30.11 in 10.0 mi NNE 15.0 mph - N/A   Clear
7:50 AM 14.0 °F -1.4 °F -7.6 °F 38% 30.12 in 10.0 mi NNE 15.0 mph - N/A   Clear
8:10 AM 14.0 °F 0.5 °F -7.6 °F 38% 30.13 in 10.0 mi NE 11.5 mph - N/A   Clear
8:28 AM 15.8 °F 3.4 °F -7.6 °F 35% 30.14 in 10.0 mi NE 10.4 mph - N/A   Clear
8:50 AM 17.6 °F 7.3 °F -7.6 °F 32% 30.15 in 10.0 mi NE 8.1 mph - N/A   Clear
9:10 AM 19.4 °F 10.4 °F -9.4 °F 28% 30.16 in 10.0 mi NE 6.9 mph - N/A   Clear
9:30 AM 19.4 °F - -9.4 °F 28% 30.17 in 10.0 mi Calm Calm - N/A   Clear
9:50 AM 21.2 °F - -14.8 °F 20% 30.17 in 10.0 mi Calm Calm - N/A   Clear
10:08 AM 21.2 °F 16.4 °F -9.4 °F 26% 30.17 in 10.0 mi ENE 3.5 mph - N/A   Clear
10:30 AM 23.0 °F 13.1 °F -5.8 °F 28% 30.18 in 10.0 mi East 9.2 mph - N/A   Clear
10:50 AM 23.0 °F 15.8 °F -9.4 °F 24% 30.19 in 10.0 mi ESE 5.8 mph - N/A   Clear
11:10 AM 23.0 °F 18.4 °F -2.2 °F 33% 30.19 in 10.0 mi SSW 3.5 mph - N/A   Clear
11:29 AM 23.0 °F 17.0 °F -4.0 °F 31% 30.19 in 10.0 mi WSW 4.6 mph - N/A   Clear
11:50 AM 23.0 °F 18.4 °F -5.8 °F 28% 30.19 in 10.0 mi SSW 3.5 mph - N/A   Clear
12:10 PM 24.8 °F 19.1 °F -4.0 °F 28% 30.18 in 10.0 mi SSW 4.6 mph - N/A   Clear
12:30 PM 24.8 °F 16.1 °F -4.0 °F 28% 30.17 in 10.0 mi SSW 8.1 mph - N/A   Clear
12:50 PM 24.8 °F 14.0 °F -0.4 °F 34% 30.17 in 10.0 mi SSW 11.5 mph 17.3 mph N/A   Clear
1:09 PM 26.6 °F 18.2 °F 1.4 °F 34% 30.17 in 10.0 mi SSW 8.1 mph - N/A   Clear
1:30 PM 26.6 °F 16.2 °F 5.0 °F 40% 30.16 in 10.0 mi SSW 11.5 mph 17.3 mph N/A   Clear
1:50 PM 26.6 °F 17.5 °F 3.2 °F 37% 30.16 in 10.0 mi SSW 9.2 mph 16.1 mph N/A   Clear
2:10 PM 26.6 °F 16.8 °F 5.0 °F 40% 30.15 in 10.0 mi SSW 10.4 mph 17.3 mph N/A   Clear
2:29 PM 26.6 °F 15.7 °F 1.4 °F 34% 30.15 in 10.0 mi SW 12.7 mph 16.1 mph N/A   Clear
2:50 PM 26.6 °F 15.2 °F 1.4 °F 34% 30.16 in 10.0 mi SW 13.8 mph 18.4 mph N/A   Clear
3:10 PM 26.6 °F 16.8 °F 6.8 °F 43% 30.16 in 10.0 mi SW 10.4 mph 25.3 mph N/A   Clear
3:30 PM 26.6 °F 14.7 °F 6.8 °F 43% 30.17 in 10.0 mi SSW 15.0 mph 23.0 mph N/A   Clear
3:50 PM 24.8 °F 12.9 °F 8.6 °F 50% 30.17 in 10.0 mi SSW 13.8 mph 19.6 mph N/A   Clear
4:09 PM 24.8 °F 12.9 °F 6.8 °F 46% 30.17 in 10.0 mi SSW 13.8 mph 19.6 mph N/A   Clear
4:30 PM 23.0 °F 10.1 °F 5.0 °F 46% 30.17 in 10.0 mi SSW 15.0 mph 19.6 mph N/A   Clear
4:50 PM 21.2 °F 8.3 °F 8.6 °F 58% 30.17 in 10.0 mi SSW 13.8 mph 19.6 mph N/A   Clear
5:09 PM 21.2 °F 8.3 °F 8.6 °F 58% 30.17 in 10.0 mi SW 13.8 mph 19.6 mph N/A   Clear
5:30 PM 19.4 °F 6.0 °F 8.6 °F 63% 30.17 in 10.0 mi SW 13.8 mph 18.4 mph N/A   Clear
5:50 PM 19.4 °F 6.0 °F 8.6 °F 63% 30.17 in 10.0 mi SW 13.8 mph - N/A   Clear
6:10 PM 17.6 °F 3.2 °F 6.8 °F 63% 30.17 in 10.0 mi SW 15.0 mph - N/A   Clear
6:30 PM 17.6 °F 2.7 °F 6.8 °F 63% 30.17 in 10.0 mi SW 16.1 mph 21.9 mph N/A   Clear
6:49 PM 17.6 °F 2.7 °F 6.8 °F 63% 30.17 in 10.0 mi SW 16.1 mph 21.9 mph N/A   Clear
7:10 PM 17.6 °F 3.2 °F 5.0 °F 58% 30.17 in 10.0 mi SW 15.0 mph - N/A   Clear
7:30 PM 15.8 °F 0.9 °F 5.0 °F 62% 30.17 in 10.0 mi SW 15.0 mph - N/A   Clear
8:10 PM 14.0 °F -0.8 °F 5.0 °F 67% 30.17 in 10.0 mi SW 13.8 mph - N/A   Clear
8:29 PM 15.8 °F 1.4 °F 6.8 °F 68% 30.17 in 10.0 mi SW 13.8 mph - N/A   Clear
8:50 PM 14.0 °F -2.0 °F 6.8 °F 73% 30.17 in 10.0 mi SW 16.1 mph - N/A   Clear
9:10 PM 14.0 °F -2.0 °F 8.6 °F 79% 30.17 in 10.0 mi SW 16.1 mph 20.7 mph N/A   Clear
9:30 PM 14.0 °F -0.8 °F 6.8 °F 73% 30.17 in 10.0 mi SW 13.8 mph 19.6 mph N/A   Clear
9:49 PM 14.0 °F -1.4 °F 8.6 °F 79% 30.17 in 10.0 mi SW 15.0 mph 21.9 mph N/A   Clear
10:28 PM 14.0 °F -2.5 °F 12.2 °F 93% 30.17 in 10.0 mi SW 17.3 mph 21.9 mph N/A   Clear
10:50 PM 14.0 °F -0.8 °F 12.2 °F 93% 30.17 in 10.0 mi SW 13.8 mph 24.2 mph N/A   Mostly Cloudy
11:06 PM 15.8 °F 0.3 °F 12.2 °F 86% 30.17 in 10.0 mi SW 16.1 mph 23.0 mph N/A   Overcast
11:30 PM 15.8 °F 1.4 °F 12.2 °F 86% 30.16 in 10.0 mi SSW 13.8 mph 24.2 mph N/A   Overcast
11:49 PM 15.8 °F 0.9 °F 14.0 °F 93% 30.15 in 10.0 mi SW 15.0 mph 24.2 mph N/A   Overcast